Presure
143 186 170 170 155 192 176 239 158 159 159 144 150 151 150 152 145 147 145 139 135 137 141 142 151 140 148 152 151 160 169 162 154 182 176 189 127 194 190 178 209 212 224 215 192
136 152 134 138 126 153 153 126 184 163 193 198 165 157 155 152 153 156 143 154 157 153 157 155 154 151 143 146 157 168 161 174 177 128 191 132 199 170 168 218 149 165 142 192 163
125 157 147 190 181 130 127 211 185 167 164 178 202 152 171 162 161 158 132 143 156 147 147 155 162 147 164 161 136 161 170 173 167 188 192 172 202 220 163 196 134 214 203 193 117
163 177 148 152 121 151 162 135 183 169 166 162 194 180 209 189 177 155 162 161 161 160 159 162 160 159 165 168 169 168 177 186 183 174 174 196 215 208 229 227 244 90 128 119 263
155 172 149 199 159 179 142 176 190 189 157 187 127 199 202 192 189 195 225 211 179 172 165 175 170 172 169 177 185 189 187 179 178 183 198 201 226 227 223 197 247 250 253 247 198
151 165 186 177 152 146 163 147 169 149 154 201 226 147 161 201 215 165 185 242 163 169 171 169 182 186 168 164 172 162 175 189 144 85 169 227 208 220 228 171 254 237 228 293 391
161 161 184 148 138 207 134 175 150 197 154 198 132 158 188 194 187 190 248 186 216 168 189 161 169 195 184 179 181 186 189 192 199 169 194 216 203 187 168 250 250 205 272 308 421
170 158 148 138 119 139 184 188 160 205 235 140 193 227 157 192 175 172 150 184 166 183 185 140 168 207 152 196 187 180 176 184 190 210 221 211 215 171 193 242 250 259 287 389 391
170 189 144 165 202 140 168 179 194 195 203 266 147 152 275 157 176 201 171 151 193 178 188 168 200 162 151 181 152 166 151 188 179 181 191 207 244 169 228 247 208 279 299 395 382
150 168 180 154 187 163 203 181 171 191 216 293 201 255 162 163 127 163 184 172 203 169 167 189 222 162 155 178 190 183 171 222 209 213 197 203 232 227 245 253 255 287 308 384 366
162 146 146 172 190 210 186 206 191 247 337 308 292 295 299 178 238 212 209 143 224 159 212 149 142 219 178 223 174 223 217 157 200 202 180 194 233 228 251 240 272 284 305 376 370
160 178 202 182 170 131 181 177 244 325 319 302 253 301 284 282 171 248 188 205 175 132 139 170 224 157 199 178 159 177 201 187 209 195 213 169 221 251 242 248 274 299 325 373 362
213 175 185 208 182 149 197 221 245 334 310 297 298 294 282 208 214 250 197 141 191 148 179 223 197 153 136 170 160 175 195 197 193 205 192 217 223 253 248 258 167 301 384 366 348
158 166 174 211 186 212 172 177 325 326 269 299 290 224 280 264 257 225 246 158 140 169 208 155 201 179 163 199 163 171 162 216 195 203 236 218 229 238 245 262 282 304 359 368 344
199 217 220 181 193 191 231 233 330 319 293 301 287 285 270 266 134 260 244 186 214 214 132 149 156 165 169 191 202 210 204 219 207 188 209 226 250 236 248 268 283 292 361 369 347
215 195 179 198 184 192 232 337 318 297 290 290 284 276 269 262 166 255 210 183 138 226 139 204 167 160 210 203 204 182 185 181 207 194 231 203 246 244 254 235 288 241 357 370 226
190 226 237 255 223 216 239 329 300 279 267 287 286 273 255 251 181 141 242 234 238 197 142 160 167 165 206 208 190 184 198 193 203 188 219 244 240 235 274 270 284 290 368 359 347
222 251 258 242 218 235 265 329 326 300 287 288 283 272 259 254 246 246 235 160 231 144 214 211 169 174 205 216 200 206 214 202 240 229 233 243 229 242 258 276 284 302 182 357 204
259 256 241 226 231 298 320 310 297 295 213 291 278 274 263 257 258 247 240 230 187 169 218 206 163 169 216 214 205 221 211 213 197 233 240 226 242 247 224 275 282 294 382 348 345
273 256 244 221 288 296 315 293 298 297 292 279 275 267 262 261 255 166 189 143 227 220 220 215 196 216 200 215 219 215 214 163 156 237 231 222 252 255 213 272 282 301 378 329 345
273 236 238 316 326 284 314 290 285 284 283 273 278 273 266 248 245 249 230 240 235 209 228 230 234 230 212 219 212 200 226 221 228 235 224 229 243 262 264 273 284 306 302 165 362
378 361 335 335 322 266 303 288 285 275 284 272 276 269 274 269 251 240 243 236 240 230 229 224 217 221 217 208 214 223 226 223 232 222 226 249 240 252 262 265 287 298 374 334 350
247 294 340 340 228 304 286 283 276 277 267 273 261 264 271 271 260 248 243 208 242 235 235 223 210 219 177 206 226 236 227 236 225 230 224 250 241 251 260 262 282 320 380 276 276
343 351 306 321 270 300 282 275 273 269 261 264 226 257 263 269 206 238 245 242 249 229 237 231 240 252 241 243 237 193 234 229 234 220 235 243 246 236 257 261 276 332 374 106 327
320 346 301 310 303 303 287 274 265 273 265 260 219 208 273 263 240 242 257 250 234 248 245 149 228 249 255 234 234 224 237 229 232 224 238 234 253 246 251 256 278 297 379 341 321
324 256 321 311 300 287 279 261 265 252 262 263 248 235 261 262 255 193 245 249 246 249 152 242 199 240 258 238 228 230 224 234 230 223 231 233 250 256 247 251 267 293 384 119 346
293 301 310 290 278 273 273 263 266 259 253 265 209 224 218 255 259 254 203 226 259 261 253 255 250 245 141 231 226 236 235 230 219 231 238 251 221 249 248 250 263 290 520 180 172
Wind_Speed
44 43 47 56 51 60 52 58 63 64 66 54 58 59 56 57 50 49 50 52 51 54 57 57 62 58 64 68 67 72 75 70 63 83 76 82 43 88 76 80 101 97 106 93 90
39 51 40 42 42 53 55 43 59 52 66 64 74 66 64 63 62 62 52 56 60 62 67 66 62 62 61 63 71 76 71 79 81 41 86 50 93 73 73 104 49 63 40 70 62
36 51 42 50 54 46 45 59 61 63 65 65 61 57 76 71 69 66 44 52 61 56 57 64 68 59 72 70 52 73 77 79 75 85 88 74 97 98 75 87 47 100 74 80 20
45 48 53 58 43 60 55 46 57 58 63 65 60 70 61 77 76 63 70 68 68 66 66 68 65 67 73 77 74 76 85 86 82 70 66 92 99 87 99 98 98 28 27 29 108
55 58 42 64 50 66 54 70 53 50 60 66 45 60 61 74 75 74 68 75 79 75 66 75 72 77 75 82 85 87 86 78 78 76 95 94 96 98 96 88 99 104 107 103 62
49 59 63 62 46 53 66 62 55 54 60 55 70 58 66 59 69 65 70 66 61 68 73 71 83 84 69 65 70 64 74 88 52 17 74 90 84 94 95 76 104 99 98 113 74
52 46 63 54 50 80 48 44 62 65 64 71 51 65 63 58 64 57 67 65 67 68 73 59 64 84 82 79 81 84 84 87 94 66 84 87 81 69 76 102 102 84 114 108 41
56 61 57 55 48 55 60 75 62 75 91 61 63 72 60 63 68 60 51 66 60 72 71 44 57 80 48 84 83 73 70 77 73 86 84 90 91 74 82 103 104 110 103 64 43
66 81 60 62 78 53 64 75 78 74 70 70 62 64 60 55 52 66 54 51 58 53 68 56 70 53 47 69 51 59 57 72 69 75 78 86 91 71 89 106 84 105 102 48 29
63 75 78 62 85 53 83 68 64 78 86 56 65 55 71 63 38 55 68 66 61 54 54 63 70 51 50 65 73 69 63 76 75 83 76 84 89 85 103 99 103 102 102 33 37
62 67 65 59 87 98 81 97 89 82 52 46 45 46 47 78 59 61 57 47 60 51 65 43 44 65 60 66 61 66 69 56 78 81 64 77 91 90 97 92 99 98 97 38 33
63 90 99 82 62 51 78 71 90 62 45 45 46 43 46 48 65 60 65 59 51 44 46 53 55 46 60 54 48 53 71 61 72 72 80 65 78 97 94 95 94 100 81 30 30
91 77 78 97 82 66 93 91 86 48 43 44 39 40 42 45 50 55 63 44 52 47 54 54 56 44 48 52 47 51 67 68 62 74 70 78 89 94 93 94 25 102 39 40 38
82 68 83 102 91 100 67 60 56 45 43 36 37 42 40 47 49 50 53 48 46 49 60 46 59 51 46 56 47 49 52 67 73 72 83 76 87 88 90 92 92 98 58 33 38
106 100 96 85 95 95 84 83 47 42 42 34 36 37 41 45 43 44 49 51 55 57 44 46 40 43 45 54 58 61 64 67 69 62 69 87 86 83 86 89 89 89 39 23 29
108 106 83 82 89 91 81 46 42 43 35 32 35 36 39 43 42 41 45 50 46 57 49 57 47 41 53 54 56 54 59 57 68 64 82 53 80 78 82 57 87 53 46 14 4
95 113 107 99 87 76 80 42 45 43 41 32 32 36 40 44 43 48 41 44 48 50 51 43 40 45 52 54 54 53 62 57 63 61 75 76 77 73 81 80 81 79 31 15 17
99 97 79 82 82 77 73 42 29 32 31 32 32 38 42 45 47 45 45 48 53 51 55 58 42 43 53 58 56 58 62 59 74 73 77 71 69 75 71 78 80 79 4 15 10
83 80 76 77 76 60 42 36 33 31 48 31 35 37 42 45 47 48 51 48 49 48 56 53 44 41 58 55 55 61 60 64 58 69 65 67 70 71 52 74 79 72 15 11 16
73 68 70 73 56 51 39 37 31 28 31 30 36 39 40 43 47 37 47 44 53 57 58 56 51 56 53 54 59 57 60 39 42 62 63 59 66 71 44 71 74 74 11 19 17
67 64 67 45 31 51 33 35 36 30 29 31 36 35 39 44 43 46 43 50 54 55 60 61 59 55 49 56 51 51 59 56 58 60 59 59 59 67 69 65 70 70 8 15 25
47 44 41 35 39 47 37 36 33 33 32 31 33 33 33 37 46 45 47 47 52 53 55 53 47 52 53 46 54 62 57 58 56 57 57 59 57 61 63 61 69 59 11 1 31
47 42 36 34 51 31 35 33 34 31 33 33 33 31 32 35 41 44 46 36 51 54 57 55 50 50 43 41 59 51 53 50 56 56 53 56 54 59 58 58 66 71 14 22 24
40 39 37 38 42 40 38 36 33 32 34 33 41 30 32 34 35 40 44 46 47 51 55 56 53 49 52 44 41 42 45 50 50 48 52 52 56 45 56 53 60 68 12 20 10
37 32 37 36 34 34 36 33 35 33 32 33 43 39 30 33 34 34 36 39 41 42 44 32 44 41 35 39 39 43 38 45 46 45 51 44 56 48 51 50 62 62 17 21 20
32 42 36 34 35 37 35 36 35 39 35 33 31 36 29 29 33 30 35 36 38 38 39 40 38 34 29 30 37 37 43 41 43 39 46 45 51 49 47 51 50 61 11 38 40
38 36 39 38 39 38 37 39 40 35 34 31 43 35 31 30 28 29 32 28 24 22 23 22 25 26 24 30 35 35 36 39 35 43 48 46 34 43 44 47 49 61 1 25 23
Wind_Direction
285 300 273 272 282 278 281 301 275 277 278 285 277 276 278 277 271 271 271 275 280 282 283 283 285 284 286 286 285 291 295 294 299 304 303 305 269 302 307 293 308 307 304 302 291
287 286 287 287 291 284 284 290 278 280 271 276 275 279 275 276 278 276 274 275 275 276 278 280 282 282 282 284 290 296 294 300 302 310 305 310 308 288 298 304 294 303 287 302 298
285 286 287 281 290 285 287 304 278 281 279 280 275 282 274 275 273 277 279 277 278 279 280 281 285 282 289 289 294 295 299 301 295 304 308 297 308 306 300 305 277 309 308 300 262
277 291 290 285 285 287 277 285 267 274 277 278 270 271 270 268 272 281 278 280 280 281 282 284 288 289 291 293 297 299 298 300 302 304 301 308 306 304 306 307 311 241 292 254 310
279 307 297 303 293 293 288 292 265 281 277 283 287 274 276 270 272 270 268 269 274 280 285 286 289 291 291 294 295 295 298 303 302 306 306 307 307 306 309 305 316 317 314 308 299
298 297 300 292 296 297 286 281 294 280 274 287 292 280 278 276 274 276 274 265 284 284 284 286 288 288 290 291 298 293 303 301 299 224 303 305 304 309 312 305 318 315 311 318 319
278 278 302 274 291 299 299 291 278 302 279 299 280 276 263 271 273 279 264 272 266 281 279 289 284 283 287 290 294 296 299 301 301 298 307 307 313 309 304 321 320 313 320 324 317
298 301 280 279 287 290 307 303 273 307 291 277 277 271 281 261 269 277 283 272 277 274 278 283 287 277 290 284 290 297 301 304 305 303 306 307 309 300 310 324 321 322 323 328 319
289 299 298 288 301 295 291 294 309 298 291 291 277 276 267 277 278 268 272 280 270 273 276 280 280 288 291 289 292 297 293 303 302 303 303 309 315 304 320 323 316 327 330 327 319
277 297 297 275 305 285 297 313 299 307 299 286 271 275 271 274 283 273 271 275 269 273 278 277 277 289 291 288 290 297 300 299 302 302 312 313 316 320 322 322 326 332 335 320 309
286 277 290 300 303 298 312 303 309 304 291 284 275 276 266 265 261 266 261 273 256 274 268 282 286 281 287 287 293 297 295 298 304 306 313 309 320 323 321 325 330 334 338 313 323
287 296 294 301 302 301 309 307 310 302 285 280 279 275 265 254 273 258 264 262 264 281 281 276 272 286 285 293 295 302 297 308 301 310 311 313 320 320 324 327 333 339 340 318 335
294 291 290 293 301 289 305 304 309 289 283 282 281 273 260 260 261 257 257 274 259 275 271 268 275 284 291 292 291 303 298 308 309 308 310 319 322 320 325 329 321 342 332 332 339
294 293 296 294 301 299 304 292 295 285 281 281 273 270 258 252 252 259 246 264 273 269 265 275 275 284 286 290 292 303 299 302 304 308 313 319 323 323 326 332 341 343 339 342 335
289 292 291 300 299 302 301 300 286 284 279 274 267 262 254 251 275 246 248 258 254 257 281 274 278 287 291 291 291 295 297 307 305 313 315 317 317 322 329 336 343 346 330 354 351
293 288 299 291 298 300 298 285 284 286 281 268 262 257 250 250 270 244 250 254 274 253 278 264 279 281 285 287 290 302 301 302 305 311 314 311 317 324 330 335 344 348 336 16 161
288 290 294 291 294 297 301 279 282 284 281 269 260 252 251 251 264 270 242 243 242 253 274 270 279 283 285 285 290 296 295 301 306 316 315 316 322 327 338 341 347 352 331 347 24
285 287 288 288 289 295 294 281 280 271 271 260 256 249 248 246 248 242 245 264 241 266 252 261 277 286 285 286 289 291 298 302 310 311 313 317 325 329 339 343 348 354 274 337 173
281 282 285 286 289 286 268 269 273 266 276 253 251 248 248 247 244 244 244 248 252 257 253 262 271 280 283 287 288 298 298 303 311 308 311 320 324 332 336 345 349 355 321 2 83
281 283 284 282 277 277 263 268 269 263 252 250 249 249 247 246 248 262 261 272 248 251 256 265 272 277 282 288 294 298 300 307 312 305 311 323 326 336 335 346 351 353 353 355 123
280 283 283 264 253 273 262 253 261 259 254 253 250 250 246 249 252 250 260 247 249 256 257 262 267 274 282 288 293 292 297 301 302 305 316 322 327 338 342 347 353 352 201 182 133
266 259 253 250 230 266 249 250 252 255 254 249 249 250 251 244 247 253 252 256 255 260 263 267 275 278 283 285 293 295 297 300 300 308 314 325 330 338 345 347 353 355 263 260 143
278 267 243 232 271 234 240 240 245 248 250 250 245 248 253 248 244 249 254 268 256 260 262 268 274 278 274 285 287 284 293 293 299 305 316 327 333 339 346 349 355 354 235 186 173
250 245 247 232 249 228 237 235 237 240 246 245 250 248 249 250 262 253 251 255 253 258 262 269 269 267 276 279 278 292 290 293 298 311 319 327 334 332 346 352 358 355 220 215 172
255 239 240 226 221 216 224 227 237 237 242 246 248 254 253 247 253 255 252 253 256 256 258 275 268 270 275 279 274 288 289 293 299 310 322 328 334 337 347 353 355 360 201 177 174
243 256 221 212 213 221 215 233 231 243 243 248 250 251 250 250 247 262 252 255 258 259 269 264 271 276 267 264 279 285 291 293 298 311 322 329 334 343 347 349 359 0 215 213 185
246 229 216 223 221 219 216 224 229 231 240 241 244 247 248 247 253 252 265 268 262 255 259 257 259 263 277 271 282 285 287 292 301 313 320 329 330 344 347 349 355 357 343 219 201